Location: *
(48.4047°S, 175.0306°E)
Time: 12:00:02
(UTC+00:00)

Daily predictions for brighter satellites

Satellite Brightness Start Highest point End
(mag) Time Altitude Azimuth Time Altitude Azimuth Time Altitude Azimuth
CZ-4C R/B 4.5 15:35:02 24° SE 15:35:02 24° SE 15:37:18 10° SE
USA 234 4.2 15:58:00 10° E 16:02:52 41° SE 16:02:52 41° SE
ATLAS CENTAUR R/B 4.4 16:35:12 13° SSE 16:35:12 13° SSE 16:36:47 10° SE
Cosmos 2263 Rocket 3.5 16:49:22 31° SSE 16:51:05 37° SE 16:56:23 10° ENE
Envisat 4.1 16:53:17 10° NE 16:58:05 41° ESE 17:01:08 21° S
NOSS 3-1 (C) 3.9 17:06:25 42° N 17:06:25 42° N 17:10:06 10° NNE
Meteor 2-10 4.4 17:06:37 45° SSE 17:08:02 62° ESE 17:13:06 10° NNE
USA 267 3.9 17:04:13 10° ESE 17:10:39 51° NE 17:14:36 24° NNW
NOSS 2-3 (D) 4.4 17:10:05 70° SW 17:10:56 89° NW 17:16:32 10° NE
Okean O Rocket 2.0 17:10:47 10° NNE 17:14:45 62° ENE 17:14:45 62° ENE
Cosmos 1980 Rocket 2.4 17:14:37 30° N 17:17:25 67° ENE 17:23:03 10° SSE
Cosmos 1763 Rocket 3.7 17:15:53 40° N 17:17:46 71° ENE 17:23:03 10° SSE
CZ-4C R/B 3.6 17:20:13 32° SSW 17:20:13 32° SSW 17:25:37 10° SE
Cosmos 2369 3.6 17:20:46 75° WSW 17:20:46 75° WSW 17:26:31 10° SSE
USA 229 DEB 3.6 17:23:20 57° WNW 17:23:34 57° WNW 17:29:55 10° NNE
USA 229 3.6 17:23:25 57° WNW 17:23:42 57° WNW 17:30:03 10° NNE
Cosmos 1898 Rocket 3.7 17:26:06 57° NNW 17:26:06 57° NNW 17:30:34 10° N
PAYLOAD B 4.2 17:22:23 10° N 17:27:35 63° WNW 17:27:35 63° WNW
Cosmos 468 Rocket 3.8 17:30:50 62° NW 17:31:42 80° WSW 17:37:00 10° SSE
NOSS 3-1 (A) 3.3 17:34:58 56° W 17:35:44 60° WNW 17:41:11 10° NNE
Aureole 3 Rocket 2.8 17:36:45 76° ESE 17:36:51 77° E 17:41:24 10° NNE
Cosmos 2026 Rocket 3.9 17:31:14 10° N 17:37:24 88° W 17:43:46 10° S
NOSS 2-3 (C) 4.4 17:38:31 49° WSW 17:39:54 59° WNW 17:45:16 10° NNE
Cosmos 2278 3.6 17:38:08 37° NW 17:40:27 76° WSW 17:46:13 10° SSE
Cosmos 1570 Rocket 4.4 17:35:14 10° N 17:40:33 65° ENE 17:45:57 10° SSE
Cosmos 540 Rocket 4.1 17:35:38 10° N 17:40:44 58° ENE 17:45:53 10° SSE
SL-16 R/B 3.9 17:37:23 10° NNE 17:42:26 34° ENE 17:47:32 10° SE
Cosmos 1689 Rocket 3.5 17:39:59 10° SSE 17:42:55 39° E 17:45:49 10° N
SMAP 3.0 17:38:22 10° NNE 17:43:05 89° W 17:45:30 29° SSW
CZ-4 R/B 3.8 17:41:17 10° ENE 17:44:38 23° ESE 17:48:03 10° SSE
Cosmos 1697 Rocket 2.9 17:44:40 48° WSW 17:44:49 48° SW 17:50:21 10° SSE
Cosmos 841 Rocket 3.8 17:41:32 10° N 17:46:47 68° ENE 17:52:06 10° SSE
USA 234 3.3 17:40:17 10° ENE 17:46:54 84° SSE 17:50:13 33° SW
Cosmos 2228 4.3 17:44:24 10° S 17:48:32 41° ESE 17:52:36 10° NE
Cosmos 372 Rocket 4.1 17:45:25 24° SSW 17:48:38 73° ESE 17:53:45 10° NNE
Cosmos 1953 2.2 17:50:07 67° WNW 17:50:07 67° WNW 17:53:53 10° N
Okean-O 4.2 17:46:07 10° NE 17:50:10 34° ESE 17:54:16 10° S
Cosmos 1092 Rocket 4.0 17:44:30 10° NNW 17:50:36 56° WSW 17:56:44 10° S
Lacrosse 5 rocket 2.5 17:51:51 29° S 17:51:51 29° S 17:54:59 10° SE
CZ-4B R/B 3.3 17:45:57 10° N 17:51:26 57° WNW 17:54:40 26° SSW
Timation 1 Rocket 4.4 17:51:59 39° WSW 17:53:58 55° WNW 17:59:50 10° N
Cosmos 1908 3.7 17:52:24 18° S 17:55:12 62° ESE 17:59:01 10° NNE
ATLAS 2AS CENTAUR R/B 4.2 17:52:05 16° SSW 17:55:13 22° SSE 18:00:20 10° ESE
Cosmos 1937 Rocket 3.6 17:55:50 45° W 17:56:35 48° WNW 18:01:33 10° N
YAOGAN 6 2.4 17:53:27 10° N 17:57:03 74° WNW 17:57:05 74° W
Cosmos 1025 Rocket 3.2 18:00:15 47° SW 18:00:15 47° SW 18:04:01 10° S
Cosmos 1417 Rocket 4.4 17:55:29 10° S 18:01:49 87° W 18:08:09 10° N
Radarsat Rocket 4.5 17:57:21 10° N 18:04:19 48° WNW 18:09:45 14° SSW
ASTEX 1 3.5 18:03:15 10° NNE 18:08:11 79° E 18:13:12 10° S
COSMO-SKYMED 1 3.9 18:04:04 10° SSE 18:08:18 43° E 18:12:29 10° N
H-2A R/B 4.4 18:05:52 10° S 18:06:15 12° SSW 18:06:15 12° SSW
ADEOS Rocket 3.1 18:05:08 10° SSE 18:10:43 70° ENE 18:16:21 10° N
AQUARIUS 4.3 18:06:28 10° N 18:10:54 54° W 18:13:43 22° SSW
Cosmos 1655 Rocket 4.1 18:07:57 10° N 18:14:12 79° E 18:20:31 10° SSE
BREEZE-M DEB (TANK) 3.3 18:12:42 33° WNW 18:14:13 52° NNW 18:23:52 10° NE
ATLAS CENTAUR R/B 3.1 18:11:22 15° SSW 18:14:47 33° SE 18:19:11 10° ENE
Cosmos 2227 4.3 18:12:34 24° SW 18:15:50 55° WNW 18:21:20 10° N
Cosmos 1726 3.5 18:18:23 24° NW 18:18:23 24° NW 18:20:24 10° NNW
Meteor 1-16 Rocket 4.3 18:13:01 10° SSW 18:18:45 55° W 18:24:15 10° N
IRS-1C Rocket 4.0 18:15:24 10° NNE 18:20:42 79° WNW 18:26:05 10° SSW
YAOGAN 1 3.8 18:16:37 10° NE 18:20:44 42° ESE 18:24:54 10° S
Cosmos 1356 Rocket 4.3 18:16:40 10° S 18:20:45 50° ESE 18:24:52 10° NNE
Cosmos 1536 Rocket 4.0 18:17:03 10° NW 18:21:07 37° WSW 18:25:16 10° S
Cosmos 2266 Rocket 4.4 18:14:53 10° N 18:21:08 68° E 18:27:22 10° SSE
Cosmos 2322 Rocket 3.0 18:16:45 10° N 18:22:21 56° ENE 18:27:58 10° SE
Meteor 2-5 Rocket 4.2 18:17:21 10° N 18:22:53 65° E 18:28:26 10° SSE
Cosmos 1674 2.6 18:21:31 10° NNW 18:25:17 66° W 18:29:08 10° S
Aureole 3 3.4 18:22:26 10° SSW 18:27:20 73° W 18:31:08 10° N
Cosmos 2058 Rocket 3.9 18:23:10 10° S 18:27:34 54° ESE 18:31:57 10° NNE
Cosmos 2292 Rocket 4.4 18:22:44 10° N 18:29:25 82° E 18:34:27 10° S
Meteor 2-8 Rocket 4.5 18:23:42 10° SSW 18:29:44 58° W 18:35:44 10° N
Helios 1A Rocket 3.0 18:26:05 10° N 18:30:07 55° W 18:34:05 11° SSW
Cosmos 2315 Rocket 4.3 18:28:46 10° S 18:35:06 71° E 18:41:20 10° NNE
Cosmos 2263 Rocket 2.6 18:31:05 17° SW 18:35:08 44° WNW 18:40:31 10° N
Cosmos 1606 Rocket 3.5 18:31:13 10° SSW 18:35:37 67° W 18:39:56 10° N
Envisat 3.8 18:32:43 10° NNW 18:37:12 30° W 18:41:20 12° SW
Cosmos 1553 Rocket 4.3 18:31:44 10° SSW 18:37:52 46° W 18:43:53 10° NNW
Cosmos 2298 Rocket 4.1 18:34:16 11° SSW 18:39:20 58° WNW 18:44:32 10° N
Cosmos 1461 4.3 18:39:24 18° WNW 18:39:43 18° WNW 18:42:23 10° NNW
Meteor 2-15 Rocket 4.5 18:34:46 10° S 18:41:04 89° WNW 18:47:15 10° N
Cosmos 1437 3.0 18:39:10 10° NNW 18:42:04 40° WSW 18:45:01 10° S
NOAA 11 4.3 18:44:56 10° N 18:50:24 61° W 18:55:58 10° SSW
S3M 4.2 18:45:20 10° SSW 18:51:14 48° W 18:57:06 10° NNW
ATLAS 5 CENTAUR R/B 2.9 18:44:55 10° NNW 18:52:05 76° NE 18:58:38 10° SE
Okean O Rocket 3.3 18:49:26 10° NW 18:52:05 15° W 18:52:13 15° W
Cosmos 2208 Rocket 4.3 18:47:21 10° NW 18:52:18 42° WSW 18:57:18 10° SSE
Cosmos 2360 Rocket 3.1 18:47:54 10° N 18:53:24 53° ENE 18:58:55 10° SE
USA 267 3.3 18:47:14 10° SE 18:53:49 67° SSW 19:00:21 10° WNW
Cosmos 2285 Rocket 4.4 18:47:57 10° SSW 18:54:02 44° WNW 19:00:05 10° N
Cosmos 1814 Rocket 4.3 18:49:12 10° NW 18:54:17 44° WSW 18:59:30 10° SSE
Cosmos 1844 4.3 18:48:58 10° SSW 18:54:34 57° ESE 19:00:10 10° NE
H-2A R/B 3.2 18:50:44 10° NE 18:55:25 43° ESE 19:00:13 10° S
SKYMED 2 3.6 18:52:02 10° S 18:56:26 65° WSW 19:00:46 10° NNW
Cosmos 2084 3.7 18:54:56 11° SW 18:58:59 66° SE 19:03:17 10° NE
Cosmos 1980 Rocket 3.1 18:57:12 10° WNW 19:01:56 27° SW 19:06:40 10° SSE
Cosmos 1726 Rocket 3.9 18:58:35 10° SSW 19:02:47 44° W 19:06:55 10° NNW
Cosmos 489 Rocket 4.5 18:58:35 10° NNW 19:04:52 84° WSW 19:11:12 10° SSE
Okean 1-7 Rocket 3.6 19:01:23 10° NNW 19:05:52 79° W 19:10:27 10° S
Resurs 01 Rocket 4.4 19:06:03 10° ESE 19:07:48 12° SE 19:09:34 10° SSE
CZ-4C R/B 4.0 19:05:31 10° SW 19:10:26 20° S 19:14:49 10° SE
Cosmos 1844 Rocket 2.8 19:06:18 10° SSW 19:12:05 87° ESE 19:17:48 10° NNE
CZ-2C R/B 3.5 19:08:32 10° NNE 19:13:39 69° ESE 19:19:09 10° S
Cosmos 1689 Rocket 4.0 19:12:19 10° SW 19:13:50 13° WSW 19:15:21 10° W
HJ-1C 3.6 19:11:25 10° NNE 19:14:45 75° ESE 19:18:10 10° S
Cosmos 1939 Rocket 3.5 19:12:14 10° NNW 19:16:04 38° W 19:20:00 10° SSW
CZ-4 R/B 2.0 19:15:23 10° N 19:19:24 42° W 19:23:31 10° SSW
Ariane Rocket 4.0 19:15:58 10° NE 19:20:53 49° ESE 19:25:51 10° S
Cosmos 1626 2.7 19:17:43 10° NW 19:21:15 38° WSW 19:24:51 10° S
CSL-04 Rocket 3.7 19:16:42 10° N 19:22:08 73° WNW 19:27:43 10° SSW
Cosmos 540 Rocket 4.5 19:18:25 10° WNW 19:22:43 25° SW 19:27:02 10° S
Cosmos 2228 4.3 19:22:31 10° SW 19:25:48 21° W 19:29:02 10° NW
SL-16 R/B 2.5 19:20:56 10° NW 19:26:25 46° SW 19:31:56 10° SSE
Okean-O 3.6 19:22:44 10° NNW 19:26:40 29° W 19:30:38 10° SW
CSL-04 Debris 4.3 19:22:35 10° N 19:27:57 63° WNW 19:33:25 10° SSW
BREEZE-M DEB (TANK) 2.8 19:22:02 10° WSW 19:27:57 70° NNW 19:30:27 10° ENE
SL-14 R/B 3.8 19:24:44 10° NW 19:28:25 36° WSW 19:32:06 10° S
Cosmos 1697 Rocket 4.4 19:27:33 10° WSW 19:30:18 13° SSW 19:33:04 10° S
USA 234 4.1 19:24:22 10° NNE 19:30:19 36° NW 19:36:21 10° WSW
CZ-2D R/B 4.2 19:27:00 10° NNW 19:30:31 31° W 19:34:05 10° SSW
